Flag for Canada Weather past 2 weeks in St. Albert, Alberta, Canada

Now
55 °F

Light rain. Overcast.


Feels Like: 54 °F
Forecast: 49 / 71 °F
Wind: 7 mph from West

Location: Edmonton Municipal

Current Time: Aug 20, 2014 at 8:45:17 AM

Latest Report: Aug 20, 2014 at 8:00 AM


Visibility: 9 mi

Pressure: 29.86 "Hg

Humidity: 88%

Dew point: 52 °F

Location of St. AlbertLocation

Historic Weather in St. Albert — Graph

°F

St. Albert temperature yesterday

Maximum temperature yesterday: 72 °F (at 6:00 PM)
Minimum temperature yesterday: 63 °F (at 1:54 AM)
Average temperature yesterday: 65 °F

Past Weeks' High & Low Weather Summary

 TemperatureHumidityPressure
High84 °F (Aug 12, 3:00 PM)100% (Aug 14, 4:00 AM)30.18 "Hg (Aug 14, 4:00 AM)
Low50 °F (Aug 9, 3:00 AM)29% (Aug 14, 5:00 PM)29.67 "Hg (Aug 19, 6:00 PM)
Average68 °F67%29.94 "Hg
* Reported Aug 5 7:00 AM — Aug 20 7:00 AM, St. Albert, Weather by CustomWeather, © 2014

Note: Actual official high and low records may vary slightly from our data, if they occured in-between our weather recording intervals... More about our weather records

Advertising

St. Albert weather history for previous 24 hours

 ConditionsComfort  
Time TempWeatherWind HumidityBarometerVisibility
7:00 AM
Aug 20
55 °FOvercast.3 mph88%29.83 "Hg9 mi
6:04 AM57 °FPassing clouds.10 mph77%29.81 "Hg9 mi
6:00 AM57 °FLight rain. Passing clouds.8 mph77%29.80 "Hg9 mi
5:58 AM57 °FLight rain. Passing clouds.10 mph77%29.81 "Hg9 mi
5:00 AM57 °FPassing clouds.12 mph77%29.79 "Hg9 mi
4:00 AM57 °FPassing clouds.9 mph77%29.79 "Hg9 mi
3:00 AM57 °FPassing clouds.18 mph82%29.78 "Hg9 mi
2:00 AM57 °FClear.17 mph88%29.75 "Hg9 mi
1:00 AM59 °FClear.5 mph77%29.74 "Hg9 mi
12:00 AM61 °FClear.5 mph77%29.72 "Hg9 mi
11:00 PM
Aug 19
63 °FClear.3 mph73%29.71 "Hg9 mi
10:00 PM63 °FClear.5 mph68%29.70 "Hg9 mi
9:00 PM64 °FSunny.5 mph60%29.69 "Hg9 mi
8:00 PM68 °FSunny.6 mph53%29.69 "Hg9 mi
7:00 PM68 °FSunny.7 mph53%29.67 "Hg9 mi
6:00 PM72 °FSunny.6 mph47%29.67 "Hg9 mi
5:00 PM68 °FPassing clouds.7 mph53%29.68 "Hg9 mi
4:00 PM66 °FLight rain. Partly sunny.5 mph52%29.70 "Hg9 mi
3:00 PM66 °FLight rain. Mostly cloudy.10 mph64%29.71 "Hg9 mi
2:00 PM70 °FScattered clouds.15 mph57%29.70 "Hg9 mi
1:00 PM68 °FPassing clouds.10 mph64%29.70 "Hg9 mi
12:00 PM68 °FPassing clouds.12 mph69%29.68 "Hg9 mi
11:00 AM68 °FPassing clouds.9 mph69%29.69 "Hg9 mi
10:00 AM66 °FPartly sunny.9 mph78%29.69 "Hg9 mi
9:00 AM64 °FScattered clouds.7 mph78%29.69 "Hg9 mi
8:00 AM63 °FScattered clouds.10 mph83%29.70 "Hg9 mi
Weather by CustomWeather, © 2014

See weather overviewHow to use our weather pages